Change the Weather History Date:

Wednesday, March 5, 2014

  Actual Average (KBTR) Record (KBTR)
Temperature  
Mean Temperature 48 °F 59 °F  
Max Temperature 60 °F 70 °F 86 °F (1905)
Min Temperature 36 °F 48 °F 24 °F (2002)
Degree Days  
Heating Degree Days 17 7  
Month to date heating degree days 37  
Since 1 July heating degree days 1372  
Cooling Degree Days 0 1  
Month to date cooling degree days 5  
Year to date cooling degree days 36  
Moisture  
Dew Point 44 °F    
Average Humidity 86    
Maximum Humidity 100    
Minimum Humidity 67    
Precipitation  
Precipitation 0.00 in 0.15 in 2.56 in (1948)
Month to date precipitation 0.78  
Year to date precipitation 11.54  
Snow  
Snow 0.00 in - - ()
Month to date snowfall  
Since 1 July snowfall  
Snow Depth -    
Sea Level Pressure  
Sea Level Pressure 30.05 in    
Wind  
Wind Speed 4 mph (NNE)    
Max Wind Speed 7 mph    
Max Gust Speed -    
Visibility 9 miles    
Events      
T = Trace of Precipitation, MM = Missing Value Source: NWS Daily Summary

Daily Weather History Graph

Daily Weather History Graph

Search for Another Location

Airport or City:

Trip Planner

Search our weather history database for the weather conditions in past years. The results will help you decide how hot, cold, wet, or windy it might be!

Date:

Astronomy

Mar. 05, 2014 Rise Set
Actual Time 6:25 AM CST 6:05 PM CST
Civil Twilight 6:01 AM CST 6:29 PM CST
Nautical Twilight 5:33 AM CST 6:57 PM CST
Astronomical Twilight 5:05 AM CST 7:25 PM CST
Moon 9:12 AM CST (3/5) 10:51 PM CST (3/5)
Length of Visible Light 12h 28m
Length of Day
11h 40m
Waxing Crescent, 23% of the Moon is Illuminated
Mar 5
Waxing Crescent
Mar 8
First Quarter
Mar 16
Full
Mar 23
Last Quarter
Mar 30
New

Hourly Weather History & Observations

Time (CST) Temp. Windchill Dew Point Humidity Pressure Visibility Wind Dir Wind Speed Gust Speed Precip Events Conditions
12:15 AM 36.9 °F 33.1 °F 35.6 °F 95% 30.09 in 10.0 mi NNE 4.6 mph - N/A   Overcast
12:35 AM 37.0 °F 33.3 °F 35.8 °F 95% 30.08 in 10.0 mi NE 4.6 mph - N/A   Overcast
12:55 AM 37.0 °F - 36.0 °F 96% 30.08 in 10.0 mi Calm Calm - N/A   Overcast
1:15 AM 37.4 °F 34.9 °F 36.1 °F 95% 30.09 in 10.0 mi NNE 3.5 mph - N/A   Overcast
1:35 AM 37.4 °F 33.8 °F 36.1 °F 95% 30.09 in 10.0 mi North 4.6 mph - N/A   Overcast
1:55 AM 37.4 °F 34.9 °F 36.5 °F 97% 30.08 in 10.0 mi NNE 3.5 mph - N/A   Overcast
2:15 AM 37.4 °F 32.8 °F 36.1 °F 95% 30.08 in 10.0 mi North 5.8 mph - N/A   Overcast
2:35 AM 37.2 °F 33.6 °F 36.0 °F 95% 30.08 in 10.0 mi North 4.6 mph - N/A   Overcast
2:55 AM 37.4 °F 33.8 °F 36.1 °F 95% 30.08 in 10.0 mi North 4.6 mph - N/A   Overcast
3:15 AM 37.2 °F 32.6 °F 36.1 °F 96% 30.07 in 10.0 mi North 5.8 mph - N/A   Overcast
3:35 AM 37.2 °F - 36.3 °F 97% 30.08 in 10.0 mi Calm Calm - N/A   Overcast
3:55 AM 37.0 °F 34.5 °F 36.5 °F 98% 30.08 in 7.0 mi North 3.5 mph - N/A   Overcast
4:15 AM 37.0 °F 34.5 °F 36.7 °F 99% 30.08 in 5.0 mi North 3.5 mph - N/A   Overcast
4:35 AM 37.4 °F 34.9 °F 37.0 °F 99% 30.08 in 3.0 mi NNE 3.5 mph - N/A   Overcast
4:55 AM 37.2 °F 32.6 °F 37.2 °F 100% 30.07 in 3.0 mi NNE 5.8 mph - N/A   Overcast
5:15 AM 37.4 °F 32.8 °F 37.4 °F 100% 30.08 in 4.0 mi NNE 5.8 mph - N/A   Overcast
5:35 AM 37.4 °F 33.8 °F 37.4 °F 100% 30.07 in 5.0 mi NNE 4.6 mph - N/A   Overcast
5:55 AM 37.8 °F 34.2 °F 37.6 °F 99% 30.07 in 5.0 mi ENE 4.6 mph - N/A   Overcast
6:15 AM 37.9 °F 35.5 °F 37.8 °F 99% 30.06 in 5.0 mi NE 3.5 mph - N/A   Overcast
6:35 AM 38.3 °F 35.9 °F 37.9 °F 99% 30.07 in 5.0 mi NE 3.5 mph - N/A   Overcast
6:55 AM 38.5 °F 35.0 °F 38.3 °F 99% 30.07 in 5.0 mi NE 4.6 mph - N/A   Overcast
7:15 AM 38.8 °F 35.4 °F 38.3 °F 98% 30.07 in 5.0 mi East 4.6 mph - N/A   Overcast
7:35 AM 39.4 °F 37.2 °F 38.8 °F 98% 30.08 in 5.0 mi East 3.5 mph - N/A   Overcast
7:55 AM 40.1 °F - 39.4 °F 97% 30.08 in 5.0 mi Calm Calm - N/A   Overcast
8:15 AM 40.8 °F 38.8 °F 40.1 °F 97% 30.08 in 5.0 mi North 3.5 mph - N/A   Overcast
8:35 AM 41.2 °F 38.2 °F 40.3 °F 97% 30.09 in 7.0 mi North 4.6 mph - N/A   Overcast
8:55 AM 41.9 °F 39.0 °F 40.8 °F 96% 30.08 in 7.0 mi North 4.6 mph - N/A   Overcast
9:15 AM 42.1 °F 37.7 °F 40.5 °F 94% 30.08 in 7.0 mi North 6.9 mph - N/A   Overcast
9:35 AM 43.0 °F 40.3 °F 41.0 °F 93% 30.09 in 10.0 mi North 4.6 mph - N/A   Overcast
9:55 AM 43.9 °F 41.3 °F 41.4 °F 91% 30.09 in 10.0 mi NNE 4.6 mph - N/A   Overcast
10:15 AM 45.1 °F 43.7 °F 42.8 °F 91% 30.08 in 10.0 mi North 3.5 mph - N/A   Overcast
10:35 AM 47.3 °F - 43.5 °F 87% 30.08 in 10.0 mi NNE 4.6 mph - N/A   Overcast
10:55 AM 48.6 °F - 44.4 °F 86% 30.08 in 10.0 mi North 3.5 mph - N/A   Overcast
11:15 AM 50.2 °F - 45.7 °F 85% 30.07 in 10.0 mi NNE 3.5 mph - N/A   Overcast
11:35 AM 50.7 °F - 45.7 °F 83% 30.07 in 10.0 mi Calm Calm - N/A   Overcast
11:55 AM 51.8 °F - 46.4 °F 82% 30.08 in 10.0 mi Calm Calm - N/A   Overcast
12:15 PM 52.3 °F - 46.2 °F 80% 30.07 in 10.0 mi Calm Calm - N/A   Overcast
12:35 PM 53.4 °F - 46.8 °F 78% 30.05 in 10.0 mi Calm Calm - N/A   Overcast
12:55 PM 53.8 °F - 47.1 °F 78% 30.04 in 10.0 mi East 3.5 mph - N/A   Overcast
1:15 PM 53.6 °F - 47.1 °F 79% 30.03 in 10.0 mi East 4.6 mph - N/A   Overcast
1:35 PM 54.5 °F - 47.5 °F 77% 30.03 in 10.0 mi NE 3.5 mph - N/A   Overcast
1:55 PM 55.4 °F - 48.4 °F 77% 30.02 in 10.0 mi Calm Calm - N/A   Overcast
2:15 PM 56.7 °F - 48.7 °F 75% 30.01 in 10.0 mi East 4.6 mph - N/A   Overcast
2:35 PM 57.4 °F - 48.7 °F 73% 30.00 in 10.0 mi NE 3.5 mph - N/A   Overcast
2:55 PM 59.4 °F - 49.3 °F 69% 29.98 in 10.0 mi NE 4.6 mph - N/A   Mostly Cloudy
3:15 PM 59.9 °F - 49.3 °F 68% 29.97 in 10.0 mi NNE 4.6 mph - N/A   Mostly Cloudy
3:35 PM 60.3 °F - 49.3 °F 67% 29.97 in 10.0 mi ENE 3.5 mph - N/A   Scattered Clouds
3:55 PM 60.4 °F - 49.5 °F 67% 29.97 in 10.0 mi NE 4.6 mph - N/A   Scattered Clouds
4:15 PM 60.3 °F - 49.5 °F 68% 29.97 in 10.0 mi ENE 3.5 mph - N/A   Scattered Clouds
4:35 PM 59.5 °F - 49.8 °F 70% 29.97 in 10.0 mi Calm Calm - N/A   Mostly Cloudy
4:55 PM 59.0 °F - 50.0 °F 72% 29.99 in 10.0 mi SE 3.5 mph - N/A   Overcast
5:15 PM 58.1 °F - 50.0 °F 74% 29.99 in 10.0 mi SE 3.5 mph - N/A   Overcast
5:35 PM 57.6 °F - 49.8 °F 75% 30.00 in 10.0 mi Calm Calm - N/A   Overcast
5:55 PM 57.2 °F - 50.0 °F 77% 30.01 in 10.0 mi East 3.5 mph - N/A   Overcast
6:15 PM 56.8 °F - 50.2 °F 78% 30.01 in 10.0 mi Calm Calm - N/A   Overcast
6:35 PM 56.7 °F - 49.6 °F 77% 30.02 in 10.0 mi East 3.5 mph - N/A   Overcast
6:55 PM 56.3 °F - 49.6 °F 78% 30.02 in 10.0 mi East 3.5 mph - N/A   Overcast
7:15 PM 56.3 °F - 49.3 °F 77% 30.03 in 10.0 mi Calm Calm - N/A   Overcast
7:35 PM 55.8 °F - 49.6 °F 80% 30.03 in 10.0 mi ENE 4.6 mph - N/A   Overcast
7:55 PM 55.6 °F - 49.5 °F 80% 30.03 in 10.0 mi Calm Calm - N/A   Overcast
8:15 PM 55.4 °F - 49.5 °F 80% 30.05 in 10.0 mi Calm Calm - N/A   Overcast
8:35 PM 55.4 °F - 49.8 °F 81% 30.04 in 10.0 mi Calm Calm - N/A   Overcast
8:55 PM 55.0 °F - 49.6 °F 82% 30.04 in 10.0 mi NE 3.5 mph - N/A   Overcast
9:15 PM 54.7 °F - 49.6 °F 83% 30.04 in 10.0 mi NNE 4.6 mph - N/A   Overcast
9:35 PM 54.5 °F - 49.5 °F 83% 30.04 in 10.0 mi NNE 3.5 mph - N/A   Overcast
9:55 PM 54.1 °F - 49.5 °F 84% 30.03 in 10.0 mi NE 5.8 mph - N/A   Overcast
10:15 PM 53.8 °F - 49.3 °F 85% 30.05 in 10.0 mi NNW 3.5 mph - N/A   Overcast
10:35 PM 53.6 °F - 49.3 °F 85% 30.05 in 10.0 mi North 4.6 mph - N/A   Overcast
10:55 PM 53.6 °F - 49.1 °F 85% 30.04 in 10.0 mi North 3.5 mph - N/A   Overcast
11:15 PM 53.8 °F - 49.1 °F 84% 30.03 in 10.0 mi Calm Calm - N/A   Overcast
11:35 PM 53.4 °F - 49.6 °F 87% 30.03 in 10.0 mi NNW 4.6 mph - N/A   Overcast
11:55 PM 53.2 °F - 49.6 °F 88% 30.01 in 10.0 mi North 4.6 mph - N/A   Overcast